Regional Weather Roundup
Issued by NWS

Home | Current Version | Previous Version | Text Only | Print | Product List | Glossary Off
Versions: 1 2 3 4 5 6 7 8 9 10 11 12 13 14 15 16 17 18 19 20 21 22 23 24 25 26 27 28 29 30 31 32 33 34 35 36 37 38 39 40 41 42 43 44 45 46 47 48 49 50

000
ASUS43 KOAX 250310
RWRNE

WEATHER ROUNDUP FOR NEBRASKA
NATIONAL WEATHER SERVICE OMAHA NE
1000 PM CDT SUN SEP 24 2017

NOTES: SATELLITE DATA IS BEING USED TO AUGMENT CLOUD COVER ABOVE
       12000 FEET.
       "FAIR" INDICATES FEW OR NO CLOUDS BELOW 12,000 FEET WITH NO
       SIGNIFICANT WEATHER AND/OR OBSTRUCTIONS TO VISIBILITY.


NEZ001>004-019>022-054>056-250400-
NEBRASKA PANHANDLE

CITY           SKY/WX    TMP DP  RH WIND       PRES   REMARKS
SCOTTSBLUFF    CLOUDY    48  44  86 NE15      30.06R
ALLIANCE       CLOUDY    46  44  93 NE16      30.07R
CHADRON        CLOUDY    49  42  77 NE10      30.09R
GORDON         CLOUDY    47  43  85 NE8       30.09R
KIMBALL        DRIZZLE   47  47 100 NE10      30.05R
SIDNEY         LGT RAIN  47  47 100 NE14      30.04R FOG
$$

NEZ057>060-069>072-079>082-250400-
SOUTHWEST NEBRASKA

CITY           SKY/WX    TMP DP  RH WIND       PRES   REMARKS
NORTH PLATTE   CLOUDY    53  51  93 NE8       30.02S
IMPERIAL       LGT RAIN  51  49  92 NE15      30.00R
LEXINGTON      LGT RAIN  55  53  91 NE8       30.01S
MCCOOK         CLOUDY    55  55 100 NE12      29.97F
OGALLALA       CLOUDY    53  50  88 NE10      30.02S
$$

NEZ005>010-023>029-035>040-094-250400-
NORTH CENTRAL NEBRASKA

CITY           SKY/WX    TMP DP  RH WIND       PRES   REMARKS
VALENTINE      CLOUDY    52  46  80 N10       30.07R
AINSWORTH      CLOUDY    51  48  90 N14       30.05R
BROKEN BOW     RAIN      53  51  93 N17G25    29.99S
O`NEILL        LGT RAIN  53  52  95 N10       30.03S
ORD            TSTM      53  51  93 N10       30.01R FOG
THEDFORD       LGT RAIN  51  48  89 N13G20    30.05S
$$

NEZ041-046>049-061>064-073>077-083>087-250400-
SOUTH CENTRAL NEBRASKA

CITY           SKY/WX    TMP DP  RH WIND       PRES   REMARKS
GRAND ISLAND   CLOUDY    57  57 100 NE10      29.99R
AURORA         CLOUDY    57  57  99 NE7       29.98R
HASTINGS       CLOUDY    58  56  93 N8        29.99R
HEBRON         CLOUDY    65  63  92 E6        29.96R
HOLDREGE       RAIN      55  54  94 N12G18    29.99R
KEARNEY        CLOUDY    56  54  93 N12       30.00R
YORK           LGT RAIN  59  59 100 NE6       29.99R
$$

NEZ011>018-030>034-042>045-250400-
NORTHEAST NEBRASKA

CITY           SKY/WX    TMP DP  RH WIND       PRES   REMARKS
NORFOLK        LGT RAIN  56  55  97 N10       29.98F
ALBION         DRIZZLE   56  55  95 N7        29.99F
BLAIR          CLOUDY    66  62  89 N13       29.94R
COLUMBUS       HVY RAIN  58  57  97 N9        29.98S
FREMONT        RAIN      62  60  91 N8        29.96R
TEKAMAH        CLOUDY    64  58  80 N10G18    29.95R
WAYNE          CLOUDY    57  55  91 N8        29.98F
$$

NEZ050>053-065>068-078-088>093-250400-
SOUTHEAST NEBRASKA

CITY           SKY/WX    TMP DP  RH WIND       PRES   REMARKS
LINCOLN        RAIN      66  63  90 N12       29.96R FOG
OMAHA EPPLEY   CLOUDY    68  63  84 N14       29.93R
BEATRICE       HVY RAIN  68  67  97 NE6       29.94F
FALLS CITY     MOCLDY    76  65  68 SE6       29.91R
NEBRASKA CITY  CLOUDY    74  68  80 S7        29.91R
PLATTSMOUTH    CLOUDY    73  66  78 NW6       29.92R
$$

NEZ044-045-051>053-067-250400-
OMAHA AREA

CITY           SKY/WX    TMP DP  RH WIND       PRES   REMARKS
OMAHA EPPLEY   CLOUDY    68  63  84 N14       29.93R
BLAIR          CLOUDY    66  62  89 N13       29.94R
FREMONT        RAIN      62  60  91 N8        29.96R
MILLARD        CLOUDY    69  64  82 NW14      29.94R
OFFUTT AFB     CLOUDY    70  64  82 N8        29.92R
PLATTSMOUTH    CLOUDY    73  66  78 NW6       29.92R
WAHOO          LGT RAIN  64  62  92 N7        29.95S
$$




USA.gov is the U.S. government's official web portal to all federal, state and local government web resources and services.